Temp
12 13 12 13 13 13 13 13 13 13 14 14 14 15 15 16 16 17 17 17 18 19 19 19 20 20 22 22 22 22 22 23 22 22 22 22 23 23 22 23 24 24 25 26 26 26 26
12 13 12 12 13 13 13 13 13 13 13 13 14 14 15 15 16 16 17 17 18 18 19 19 19 20 20 20 21 22 22 22 21 21 22 22 23 23 23 23 22 25 25 25 25 26 26
12 12 13 12 13 14 13 13 13 13 13 14 14 14 15 15 16 16 17 17 18 18 18 19 19 19 19 21 21 21 21 21 21 21 21 22 22 22 22 21 24 24 22 22 24 25 23
11 12 12 12 12 14 14 13 13 13 13 14 14 14 15 15 15 16 17 17 18 18 18 19 19 18 19 21 21 21 21 21 21 21 21 21 21 21 22 22 23 22 21 20 24 24 25
10 12 12 12 11 14 13 13 13 13 13 13 14 14 14 14 15 15 16 17 18 18 18 18 18 17 18 20 21 21 21 21 21 21 21 21 21 21 22 20 18 21 19 22 23 26 24
10 11 11 12 12 13 12 12 12 12 12 12 13 13 13 13 14 15 15 17 18 18 17 18 18 17 20 21 21 21 21 21 21 21 22 21 21 18 17 18 17 20 21 20 21 23 25
10 11 11 10 12 12 12 11 12 12 13 12 13 13 13 13 14 14 15 16 17 17 16 17 18 20 20 21 21 21 21 21 21 21 19 22 18 17 18 20 22 21 21 20 21 23 23
10 11 10 10 11 11 11 11 11 11 13 12 13 12 13 13 14 14 14 15 14 13 13 18 18 18 19 20 20 20 21 21 21 19 20 19 18 20 22 23 22 21 20 20 21 23 22
9 10 11 10 11 11 10 11 11 11 12 11 12 13 12 13 13 13 13 14 14 14 13 16 19 18 20 20 20 20 20 21 21 19 20 18 20 23 23 22 22 21 20 20 20 22 22
9 8 10 10 10 10 10 10 10 11 11 11 12 12 12 12 12 12 13 13 14 13 11 17 19 20 20 20 19 21 21 21 21 20 20 20 22 22 21 21 21 20 21 22 21 20 19
9 9 8 10 9 10 10 10 10 10 11 11 11 11 12 12 12 12 12 13 13 13 12 21 19 20 20 19 20 20 21 21 20 20 20 20 21 20 21 22 22 20 22 21 21 19 19
8 9 8 9 9 9 9 9 9 9 10 10 11 11 11 11 11 12 12 13 14 13 12 20 19 19 19 19 20 21 20 20 20 20 19 19 22 21 22 23 22 22 21 20 20 19 17
7 8 8 8 8 9 9 9 9 9 9 10 10 11 11 11 11 12 12 13 11 11 19 20 20 20 19 19 19 21 20 19 17 18 18 20 20 21 23 21 22 20 19 16 16 16 17
7 7 7 8 7 8 8 8 9 9 9 9 9 9 9 10 11 12 12 11 11 16 16 20 20 20 19 20 20 20 19 18 18 18 18 18 18 21 22 21 20 20 19 16 16 16 17
6 7 7 7 7 7 8 8 8 8 8 9 9 8 9 10 11 11 11 9 11 13 16 15 17 17 18 20 20 19 18 18 20 19 18 18 19 21 21 22 21 20 17 19 17 18 16
6 6 7 7 7 7 7 7 7 8 8 8 9 8 9 10 10 9 9 9 10 12 14 16 15 16 16 18 20 20 19 19 20 20 21 19 18 21 21 21 21 20 18 16 14 15 15
6 6 6 7 6 6 7 7 7 7 7 7 7 7 9 10 9 8 9 10 11 13 13 15 15 14 15 16 18 18 18 17 16 18 19 17 17 19 20 19 18 18 17 16 16 14 11
6 6 6 6 6 6 6 6 6 6 6 6 6 7 9 9 8 9 9 12 13 14 14 14 15 14 14 15 15 16 16 15 16 17 17 16 16 15 18 19 19 18 18 17 10 15 11
6 6 6 6 6 6 6 6 6 5 5 6 7 8 8 9 8 8 11 12 13 14 13 14 14 14 15 15 14 14 15 16 16 15 14 15 14 12 15 16 15 14 16 17 16 12 12
5 5 5 6 5 5 6 6 6 6 6 7 9 5 7 7 9 10 10 10 12 14 14 14 14 14 14 13 14 14 15 16 16 15 15 14 15 15 11 14 14 14 15 16 15 8 10
5 5 5 5 5 5 5 5 6 6 6 6 7 6 7 4 6 7 9 11 11 12 14 14 13 13 13 11 13 12 15 14 15 16 16 15 13 15 15 14 15 15 15 15 14 14 11
5 4 5 5 5 5 5 6 6 6 5 4 6 8 8 8 8 7 8 9 11 12 12 12 12 13 14 13 12 12 13 13 13 14 14 14 10 13 8 13 14 13 14 14 14 15 15
4 5 5 4 4 5 5 5 6 5 4 3 6 7 8 8 7 7 8 10 11 12 13 14 13 12 13 13 15 15 14 15 15 13 12 12 10 9 9 13 13 10 12 14 15 16 15
4 4 4 4 4 4 4 5 5 5 5 5 6 7 7 4 7 8 10 10 11 12 11 13 14 12 14 14 14 14 14 14 15 14 15 11 11 7 7 11 8 12 15 16 17 17 16
3 3 4 4 4 4 4 5 4 4 5 5 6 6 7 5 9 10 10 11 11 12 13 13 13 12 14 13 8 9 11 12 12 13 13 12 9 6 7 7 11 13 15 16 16 14 13
3 4 4 4 3 4 4 4 4 4 5 5 5 5 6 6 6 10 10 12 8 8 11 12 12 12 12 9 6 7 7 11 11 13 12 8 9 7 7 8 8 12 15 16 16 10 11
3 3 3 3 3 3 3 4 4 4 4 4 4 4 5 5 7 8 8 8 10 11 7 11 10 10 11 6 7 6 6 12 9 10 9 7 6 8 6 6 8 13 15 15 10 9 12
3 2 1 2 2 3 3 3 4 4 4 4 3 3 4 4 5 5 5 5 6 6 6 11 8 8 5 5 5 4 7 9 11 12 9 8 6 6 7 7 8 13 13 11 10 12 12
1 1 2 2 1 2 3 3 3 3 3 3 2 2 3 4 3 4 5 4 5 5 5 8 9 9 9 4 5 7 6 8 9 7 11 7 7 6 7 7 11 14 13 14 13 13 11
Height
1531 1534 1535 1539 1543 1545 1546 1549 1550 1551 1553 1554 1555 1556 1556 1557 1556 1556 1555 1554 1553 1553 1551 1549 1547 1544 1542 1542 1541 1539 1539 1538 1538 1537 1536 1536 1535 1534 1532 1527 1524 1522 1521 1519 1517 1515 1516
1525 1529 1532 1534 1538 1542 1543 1546 1547 1549 1550 1552 1552 1553 1554 1554 1554 1554 1554 1553 1552 1551 1550 1548 1546 1545 1544 1543 1539 1537 1537 1537 1538 1537 1536 1537 1537 1534 1532 1529 1527 1524 1520 1518 1517 1515 1514
1520 1523 1527 1529 1533 1538 1540 1543 1545 1546 1547 1549 1550 1551 1552 1552 1552 1552 1551 1551 1550 1549 1547 1546 1545 1543 1541 1540 1537 1535 1535 1535 1536 1538 1536 1536 1535 1534 1534 1530 1526 1523 1524 1518 1513 1511 1512
1513 1517 1521 1525 1528 1532 1536 1539 1541 1543 1545 1546 1547 1548 1549 1550 1550 1550 1549 1548 1547 1546 1545 1544 1542 1542 1536 1535 1535 1535 1534 1534 1534 1536 1536 1535 1535 1534 1534 1530 1527 1524 1523 1531 1506 1501 1511
1506 1511 1516 1520 1524 1528 1533 1535 1538 1541 1542 1543 1545 1546 1547 1548 1549 1547 1547 1545 1544 1542 1542 1541 1540 1540 1534 1532 1532 1532 1532 1532 1533 1534 1534 1535 1536 1534 1532 1533 1538 1525 1537 1525 1512 1501 1507
1498 1505 1509 1514 1519 1523 1527 1531 1534 1538 1540 1542 1542 1544 1545 1545 1547 1546 1545 1542 1540 1539 1538 1538 1537 1541 1532 1531 1530 1530 1531 1532 1532 1532 1533 1535 1534 1534 1532 1539 1554 1538 1531 1527 1527 1513 1509
1490 1497 1503 1509 1513 1518 1524 1526 1531 1534 1537 1539 1541 1541 1543 1543 1545 1544 1544 1540 1542 1539 1536 1535 1534 1531 1528 1530 1529 1529 1529 1531 1530 1531 1533 1531 1538 1543 1533 1529 1526 1526 1528 1530 1519 1510 1514
1486 1490 1495 1503 1508 1513 1518 1522 1527 1532 1534 1539 1539 1539 1540 1542 1543 1544 1545 1542 1545 1547 1537 1530 1526 1525 1525 1528 1527 1526 1528 1530 1528 1531 1529 1533 1538 1524 1521 1520 1523 1526 1530 1531 1520 1512 1515
1477 1483 1488 1494 1501 1507 1513 1518 1523 1527 1531 1535 1536 1536 1539 1540 1541 1543 1544 1545 1542 1541 1538 1523 1515 1516 1518 1522 1521 1519 1525 1524 1524 1528 1528 1532 1524 1519 1520 1520 1522 1524 1529 1529 1529 1517 1513
1472 1477 1483 1487 1495 1502 1506 1513 1518 1524 1528 1532 1534 1536 1539 1539 1543 1542 1543 1542 1541 1540 1542 1519 1512 1509 1514 1516 1519 1516 1518 1522 1520 1523 1523 1524 1515 1517 1519 1522 1520 1530 1518 1519 1521 1525 1535
1468 1471 1478 1482 1490 1495 1500 1508 1513 1520 1523 1527 1530 1534 1537 1536 1538 1541 1542 1542 1541 1541 1557 1510 1511 1510 1510 1516 1516 1514 1515 1516 1518 1521 1522 1523 1517 1519 1522 1517 1516 1525 1516 1517 1517 1525 1526
1462 1467 1471 1478 1484 1489 1495 1502 1509 1514 1518 1523 1527 1531 1533 1535 1538 1540 1542 1541 1543 1550 1553 1512 1510 1510 1511 1514 1515 1514 1515 1517 1518 1518 1517 1516 1514 1514 1515 1513 1513 1515 1517 1518 1518 1523 1542
1456 1461 1467 1473 1480 1485 1492 1497 1503 1509 1515 1519 1524 1527 1530 1534 1536 1539 1540 1544 1550 1554 1515 1510 1510 1507 1511 1511 1513 1512 1515 1519 1525 1530 1526 1514 1511 1510 1511 1516 1514 1515 1526 1548 1546 1544 1545
1450 1456 1463 1469 1477 1483 1488 1493 1499 1505 1511 1515 1521 1525 1528 1531 1535 1537 1540 1547 1549 1527 1520 1505 1508 1505 1509 1506 1510 1511 1516 1521 1515 1517 1523 1526 1528 1508 1507 1513 1520 1518 1522 1544 1553 1552 1543
1443 1451 1459 1465 1472 1479 1485 1491 1495 1503 1507 1513 1517 1523 1525 1528 1533 1535 1541 1548 1538 1530 1522 1522 1515 1516 1514 1504 1506 1510 1514 1516 1513 1514 1525 1525 1524 1509 1509 1511 1515 1520 1530 1520 1533 1528 1543
1438 1445 1453 1460 1468 1474 1481 1487 1491 1497 1503 1509 1514 1518 1521 1526 1530 1535 1539 1537 1537 1529 1526 1524 1527 1521 1522 1512 1512 1511 1512 1513 1515 1513 1514 1518 1528 1512 1513 1514 1514 1517 1520 1537 1541 1555 1557
1431 1439 1447 1455 1461 1470 1476 1482 1488 1493 1499 1507 1512 1516 1516 1523 1529 1533 1531 1532 1532 1529 1529 1527 1526 1525 1523 1524 1512 1515 1517 1518 1518 1516 1514 1518 1523 1522 1515 1520 1524 1523 1529 1529 1533 1545 1570
1423 1432 1440 1448 1456 1464 1472 1478 1485 1491 1496 1500 1508 1511 1511 1517 1527 1524 1523 1522 1523 1521 1523 1525 1523 1526 1525 1522 1521 1518 1520 1520 1519 1521 1523 1521 1524 1535 1526 1517 1516 1520 1523 1526 1560 1548 1556
1416 1425 1434 1441 1450 1458 1467 1474 1483 1485 1490 1492 1500 1503 1509 1512 1514 1517 1517 1518 1518 1517 1519 1521 1523 1524 1522 1522 1528 1524 1522 1521 1521 1523 1527 1526 1531 1547 1537 1529 1524 1532 1527 1525 1530 1544 1552
1408 1418 1427 1437 1444 1453 1463 1471 1477 1482 1487 1492 1495 1502 1504 1506 1506 1510 1515 1514 1514 1511 1515 1516 1520 1523 1523 1526 1524 1527 1525 1524 1524 1524 1526 1528 1530 1534 1549 1537 1534 1538 1530 1523 1530 1562 1555
1401 1410 1421 1430 1440 1450 1457 1465 1473 1480 1482 1488 1485 1488 1492 1502 1504 1508 1511 1507 1510 1510 1511 1513 1518 1519 1523 1531 1528 1531 1525 1528 1527 1527 1527 1529 1537 1530 1529 1531 1531 1531 1530 1527 1530 1532 1545
1394 1404 1414 1425 1434 1443 1451 1457 1468 1475 1480 1485 1482 1483 1487 1492 1497 1507 1506 1503 1500 1506 1507 1511 1514 1513 1516 1522 1526 1527 1528 1533 1533 1529 1529 1529 1541 1532 1544 1530 1529 1531 1525 1525 1523 1521 1522
1387 1397 1409 1418 1429 1437 1447 1455 1464 1469 1475 1477 1481 1481 1483 1487 1494 1499 1497 1501 1498 1499 1503 1505 1508 1510 1513 1515 1514 1518 1520 1524 1525 1528 1530 1532 1538 1545 1547 1530 1532 1540 1522 1515 1513 1510 1511
1379 1391 1402 1413 1423 1433 1442 1451 1459 1466 1473 1478 1481 1482 1481 1487 1487 1492 1491 1495 1494 1495 1501 1501 1504 1505 1509 1511 1515 1518 1520 1522 1523 1523 1525 1532 1534 1545 1554 1539 1557 1518 1506 1506 1506 1503 1505
1375 1385 1396 1408 1419 1428 1438 1447 1456 1464 1470 1476 1479 1482 1481 1483 1484 1488 1489 1490 1494 1492 1495 1498 1500 1502 1504 1509 1523 1527 1525 1524 1522 1519 1522 1524 1534 1550 1553 1553 1530 1513 1503 1502 1504 1512 1508
1370 1380 1391 1403 1414 1424 1435 1444 1452 1461 1468 1475 1478 1480 1481 1483 1483 1486 1485 1485 1489 1490 1492 1491 1499 1501 1504 1510 1523 1529 1532 1523 1522 1515 1515 1521 1524 1541 1548 1548 1543 1515 1501 1499 1499 1522 1512
1369 1376 1386 1399 1411 1422 1431 1440 1450 1459 1465 1472 1477 1480 1482 1482 1483 1484 1487 1485 1484 1486 1490 1489 1494 1502 1504 1511 1522 1527 1529 1510 1521 1517 1526 1531 1535 1534 1544 1548 1529 1505 1504 1503 1520 1520 1510
1367 1377 1386 1395 1409 1420 1429 1439 1447 1455 1463 1468 1475 1479 1481 1482 1483 1485 1488 1488 1487 1485 1489 1488 1496 1499 1506 1514 1519 1521 1518 1511 1507 1503 1514 1522 1534 1535 1538 1538 1531 1501 1503 1510 1507 1505 1507
1367 1377 1387 1397 1408 1418 1428 1436 1445 1453 1461 1467 1473 1477 1480 1485 1485 1486 1490 1490 1492 1493 1493 1488 1489 1492 1496 1506 1507 1507 1511 1505 1504 1516 1501 1519 1513 1522 1521 1518 1500 1498 1497 1495 1498 1500 1504
Wind_Speed
32 31 27 25 24 21 19 17 15 14 13 12 12 12 12 13 13 14 15 16 16 17 18 19 20 21 20 12 4 10 13 12 7 6 6 9 10 12 5 9 15 5 7 13 14 11 8
34 34 31 27 25 23 21 19 17 15 14 13 13 13 14 14 15 16 17 17 18 18 18 19 20 19 17 5 9 13 13 7 5 8 7 8 11 11 10 10 7 16 14 14 20 20 17
41 35 33 28 25 25 23 21 18 16 15 14 13 14 14 15 16 17 18 19 19 20 19 18 18 18 17 14 7 11 11 5 4 9 8 5 8 5 14 9 12 19 9 9 17 22 9
37 36 34 31 27 26 24 22 20 17 15 14 13 13 14 14 15 17 18 19 20 19 18 17 16 14 12 14 13 12 8 13 7 8 8 7 9 9 8 10 8 5 5 5 9 18 7
40 36 33 30 27 29 25 21 18 15 13 12 11 11 10 11 12 13 16 17 17 17 15 14 12 5 12 6 8 2 6 13 8 13 9 6 9 9 10 3 6 1 4 9 5 10 6
46 41 34 34 31 32 27 22 18 15 13 12 10 10 9 9 10 13 14 16 12 12 11 12 12 6 8 6 3 2 4 6 9 9 12 12 6 1 5 1 4 6 6 6 6 7 3
46 46 39 36 35 33 29 22 19 16 15 12 12 13 11 10 11 11 12 11 6 2 3 8 12 11 19 10 5 6 3 6 6 10 5 15 3 6 12 6 1 5 6 7 8 10 7
38 36 42 42 38 37 29 24 22 20 17 16 15 11 10 9 9 5 6 8 6 6 13 16 24 27 28 21 22 14 9 12 7 6 12 4 8 12 12 3 4 5 5 8 6 9 8
29 39 41 40 42 38 36 31 28 28 24 16 12 10 7 6 4 3 3 3 8 11 6 16 28 19 27 17 24 25 15 18 12 8 8 8 9 12 4 4 2 3 6 6 8 10 6
34 27 38 36 43 40 33 33 34 33 23 19 15 10 6 3 2 3 3 8 9 10 3 7 6 6 17 9 6 21 21 17 8 12 10 8 9 7 4 3 5 3 9 7 7 6 4
38 36 31 30 37 37 35 34 34 29 23 21 19 15 10 6 4 5 9 6 7 2 4 4 3 6 8 9 9 1 8 3 4 7 5 8 6 8 7 3 5 7 6 5 4 7 5
35 35 34 38 29 29 33 39 32 30 26 24 20 16 12 12 9 8 7 6 5 2 6 3 4 5 5 9 5 4 2 4 5 6 9 14 19 6 4 1 3 5 5 8 7 2 4
36 34 33 31 33 34 30 26 28 31 29 27 24 19 13 10 16 11 3 3 2 3 7 2 2 5 7 5 5 4 6 4 3 1 3 5 10 8 9 1 3 4 2 3 3 1 3
37 35 33 31 31 32 32 31 30 29 27 27 24 19 13 11 14 14 10 3 5 6 10 4 8 7 7 6 7 7 4 5 8 6 4 3 3 2 2 3 1 5 7 3 2 2 2
40 38 36 34 33 32 31 31 31 31 29 27 24 21 17 14 9 10 13 4 5 4 5 9 9 4 5 7 3 6 8 5 4 6 2 4 3 5 6 3 1 4 4 4 2 3 3
43 42 40 39 36 34 32 30 30 31 31 29 26 23 23 16 13 17 3 3 3 7 6 4 3 2 4 7 2 2 6 5 4 3 2 3 2 2 3 1 5 2 1 4 4 2 1
45 44 42 40 39 36 33 30 27 27 29 26 23 10 11 18 20 14 3 5 7 20 14 4 4 4 3 5 4 8 4 6 7 7 11 5 2 1 3 2 3 3 2 3 2 4 4
47 46 44 41 40 38 35 30 27 27 29 29 21 4 20 28 10 6 5 7 10 9 17 8 3 4 4 5 5 7 3 3 4 10 5 5 2 1 2 3 7 4 3 4 4 1 2
48 48 46 43 42 41 37 32 29 30 34 38 16 7 25 31 8 5 6 7 12 6 7 7 4 4 3 1 1 7 6 2 7 4 2 5 3 2 6 4 6 3 4 4 4 3 4
51 51 49 46 45 44 39 36 34 28 32 32 15 3 7 19 14 10 6 8 7 18 8 10 4 6 1 2 3 3 3 2 7 4 2 3 3 3 5 3 3 2 4 4 2 4 4
51 53 52 48 46 43 40 38 36 28 33 27 7 5 11 5 8 9 7 6 12 8 13 17 5 7 8 5 3 3 3 5 7 4 4 0 2 3 3 5 3 5 9 6 4 6 5
53 54 53 50 48 45 43 41 39 33 34 24 5 3 11 7 21 16 11 7 12 15 10 7 7 10 13 7 7 8 4 2 7 4 2 1 3 4 5 5 5 10 13 11 12 14 11
55 54 52 50 49 45 42 43 40 38 37 17 12 3 3 12 11 9 13 13 13 13 17 17 13 5 3 5 6 10 11 3 4 5 6 3 3 2 4 4 7 7 7 12 10 10 7
55 59 54 50 49 46 46 43 39 39 38 21 12 5 2 2 4 9 9 20 14 15 17 22 21 11 10 1 4 6 4 6 8 6 4 4 3 3 3 2 2 7 7 8 4 2 5
54 57 54 52 51 49 46 41 41 40 37 23 13 6 2 1 5 9 14 11 23 21 18 12 17 7 11 8 4 3 1 3 6 7 7 8 4 1 2 2 8 12 8 4 5 3 5
47 57 55 55 53 48 44 41 40 37 35 32 13 14 7 1 3 8 9 20 6 4 2 11 6 12 12 4 3 4 5 5 5 3 4 6 5 5 2 3 6 7 3 9 5 1 8
42 53 56 54 48 45 42 39 37 35 34 38 19 10 7 1 4 8 5 4 6 12 4 7 13 7 13 3 3 4 4 3 5 8 5 3 2 8 4 4 7 12 5 6 4 5 13
42 46 44 44 43 41 40 38 36 33 33 36 31 12 7 3 6 10 11 15 9 9 1 9 7 2 3 3 4 4 4 5 5 5 8 6 6 4 3 2 10 17 8 8 7 14 11
37 38 39 41 38 37 36 35 34 33 33 31 26 20 14 6 2 7 7 4 6 9 7 6 6 8 10 3 2 2 2 2 4 2 5 4 7 6 9 7 12 9 4 13 19 19 11
Wind_Direction
231 230 221 230 234 233 234 237 240 245 252 261 270 280 288 295 301 307 313 316 320 323 327 332 334 339 344 346 337 305 321 326 331 344 27 345 320 323 332 326 325 329 309 304 327 323 292
227 229 226 222 232 236 236 237 240 245 250 259 267 276 283 290 298 303 307 311 313 316 321 325 329 333 335 307 298 300 318 316 360 342 338 326 305 335 312 316 323 322 303 314 307 291 284
224 224 226 219 225 235 236 236 238 241 247 255 264 274 283 290 296 301 304 306 308 311 316 320 324 323 314 299 230 296 305 293 324 275 286 298 341 339 324 320 312 317 321 299 274 269 251
223 221 220 218 216 226 232 233 234 238 244 252 261 271 281 290 298 302 302 303 303 305 308 312 311 313 281 287 267 244 264 285 282 284 280 285 316 298 278 282 297 294 288 276 271 241 182
213 219 218 217 218 227 225 222 227 231 238 247 258 271 283 299 306 308 311 311 310 302 300 296 299 298 280 286 284 309 306 246 262 265 310 288 297 274 283 277 308 271 253 298 301 166 132
212 215 216 220 219 221 213 216 219 227 237 248 255 265 281 295 306 316 321 320 313 299 291 282 260 279 261 273 186 253 250 279 265 273 272 240 248 233 310 77 264 339 356 338 337 350 359
217 215 225 220 217 215 217 212 216 224 236 249 262 260 264 281 298 311 339 356 351 335 330 242 292 252 290 295 296 316 273 234 260 267 269 270 154 240 248 239 4 358 350 326 311 311 349
218 221 222 217 214 227 218 218 230 231 237 245 243 246 261 277 292 307 12 47 44 297 295 269 261 254 258 267 280 263 259 249 232 230 259 294 261 241 244 342 344 339 324 305 302 319 357
207 217 217 217 213 223 220 226 230 230 234 237 240 243 239 248 272 247 102 212 278 301 266 285 266 246 251 242 246 257 257 253 225 254 247 231 248 289 216 234 273 304 293 290 287 297 298
228 210 210 211 216 210 215 222 228 236 232 227 218 210 214 215 193 152 163 256 292 344 318 265 203 255 216 215 294 246 244 258 239 227 254 252 257 282 318 337 342 281 267 282 301 319 255
221 228 217 199 217 215 219 225 226 226 219 216 217 230 223 218 173 172 218 271 291 17 336 61 85 157 189 165 328 164 220 207 235 270 243 253 286 291 295 223 269 260 323 324 311 312 3
215 221 223 220 213 209 214 219 216 216 216 214 215 219 229 234 216 207 236 263 319 42 251 234 141 184 160 199 267 161 168 229 280 262 253 264 268 242 242 293 39 324 335 313 287 229 273
211 210 214 214 213 216 214 211 214 218 214 213 214 213 225 220 219 203 213 271 49 213 273 176 157 165 193 206 214 213 171 189 212 156 256 287 250 257 244 187 298 247 293 323 326 35 208
209 206 203 201 202 204 205 206 205 207 209 206 204 216 217 210 220 219 224 32 199 213 256 333 353 312 195 207 209 188 243 231 229 221 282 249 57 177 136 143 307 313 172 161 296 322 299
208 207 206 205 207 210 212 215 216 216 216 213 211 221 219 215 209 202 178 207 209 239 338 358 323 329 312 249 136 162 201 252 45 43 17 18 34 61 46 54 110 307 45 198 210 324 61
209 209 210 211 212 210 209 209 212 215 217 217 217 216 226 209 192 180 139 201 237 267 309 6 300 119 312 335 183 235 200 16 69 70 35 294 30 197 121 324 289 78 1 28 360 82 357
211 210 209 208 206 205 201 199 202 205 207 203 195 186 208 197 181 175 202 184 209 244 252 226 295 13 275 329 224 263 39 44 8 344 352 16 93 273 103 77 356 37 28 35 72 126 155
209 208 206 203 200 200 198 196 200 198 188 181 169 189 183 180 169 199 189 193 207 220 230 261 295 273 256 360 313 15 98 90 4 340 344 342 109 90 337 73 45 354 338 152 117 242 135
208 206 204 201 199 197 197 194 191 186 183 167 173 139 183 187 191 198 206 233 199 188 202 195 224 224 339 33 312 3 55 302 320 65 46 335 337 36 349 3 25 34 311 19 120 80 175
206 206 201 198 196 196 196 192 183 181 181 168 168 126 173 205 229 199 194 211 221 201 233 172 203 240 116 1 356 329 120 44 5 70 33 1 315 182 183 232 173 269 265 259 136 118 218
206 200 197 196 196 194 192 189 183 182 179 188 188 177 174 195 216 234 229 215 224 204 205 182 228 208 193 195 204 275 235 260 350 308 336 130 243 309 333 72 307 287 275 291 274 244 202
203 198 195 195 192 191 190 189 180 178 179 194 193 142 161 180 195 212 224 232 206 212 176 208 220 201 219 189 182 187 274 117 219 256 308 342 247 358 311 305 286 275 261 244 248 253 253
200 196 191 194 193 191 191 185 184 184 186 191 203 204 163 190 176 188 217 231 222 193 219 209 208 212 270 305 273 149 163 275 271 183 196 141 119 72 271 360 352 304 232 228 240 247 208
199 194 192 194 193 192 187 187 187 191 193 182 179 214 89 252 172 207 209 222 234 217 201 209 214 205 211 164 16 103 166 253 268 245 181 161 134 101 227 21 264 240 294 271 243 315 115
199 199 192 192 192 189 187 188 194 198 195 192 187 191 175 202 209 234 224 209 237 253 218 203 203 159 197 126 73 34 26 298 247 231 237 192 135 103 156 229 294 307 292 267 180 32 92
195 194 190 190 186 187 190 189 195 196 196 194 197 192 204 50 271 280 286 216 205 207 236 152 197 146 138 104 107 159 200 178 216 173 214 80 137 139 139 207 229 241 43 61 73 165 108
188 192 186 183 183 185 186 188 192 193 195 199 200 195 183 132 329 348 13 320 273 211 174 128 133 163 179 114 182 163 213 232 223 150 172 96 35 184 177 215 278 276 24 347 126 225 134
187 185 184 181 182 184 185 187 190 193 195 201 206 210 181 196 8 43 42 33 360 20 174 152 121 160 108 155 142 206 183 226 214 195 162 158 157 177 156 206 255 242 276 195 169 140 141
173 173 174 177 179 182 184 188 192 193 195 201 211 221 221 209 278 344 37 31 42 27 350 360 171 159 173 135 191 192 205 223 185 225 160 175 176 180 179 206 238 255 162 155 167 165 158